| time (UTC) | temp C | wind direction | speed KPH | gust KPH | rain 1hr cm | rain 24hr cm | rain mn cm | humidity % | barometer mb |
| 20260510120024 | 10 | 169 | 0.0 | 6.4 | 0.00 | 0.89 | 0.00 | 97 | 1015.8 |
| 20260510114524 | 10 | 238 | 0.0 | 6.4 | 0.00 | 0.89 | 0.00 | 97 | 1015.6 |
| 20260510113028 | 10 | 177 | 3.2 | 11.3 | 0.00 | 0.89 | 0.00 | 97 | 1015.1 |
| 20260510111520 | 10 | 161 | 1.6 | 11.3 | 0.00 | 0.89 | 0.00 | 97 | 1015.3 |
| 20260510110035 | 10 | 177 | 0.0 | 9.7 | 0.00 | 0.89 | 0.00 | 97 | 1015.2 |
| 20260510104517 | 9 | 194 | 0.0 | 3.2 | 0.00 | 0.89 | 0.00 | 97 | 1015.1 |
| 20260510103019 | 8 | 171 | 0.0 | 1.6 | 0.00 | 0.89 | 0.00 | 96 | 1015.0 |
| 20260510101517 | 8 | 164 | 0.0 | 1.6 | 0.00 | 0.89 | 0.00 | 97 | 1014.7 |
| 20260510100016 | 8 | 176 | 0.0 | 3.2 | 0.00 | 0.89 | 0.00 | 97 | 1014.7 |
| 20260510094518 | 8 | 186 | 0.0 | 3.2 | 0.00 | 0.89 | 0.00 | 96 | 1014.7 |
| 20260510093012 | 8 | 181 | 3.2 | 6.4 | 0.00 | 0.89 | 0.00 | 96 | 1014.9 |
| 20260510091512 | 8 | 162 | 1.6 | 4.8 | 0.00 | 0.89 | 0.00 | 96 | 1014.9 |
| 20260510090011 | 8 | 155 | 1.6 | 4.8 | 0.00 | 0.89 | 0.00 | 96 | 1014.9 |
| 20260510084510 | 8 | 13 | 0.0 | 1.6 | 0.00 | 0.89 | 0.00 | 96 | 1015.2 |
| 20260510083010 | 8 | 10 | 0.0 | 1.6 | 0.00 | 0.89 | 0.00 | 97 | 1015.1 |
| 20260510081509 | 8 | 19 | 1.6 | 4.8 | 0.00 | 0.89 | 0.00 | 97 | 1015.5 |
| 20260510080018 | 8 | 332 | 3.2 | 6.4 | 0.00 | 0.89 | 0.00 | 96 | 1015.4 |
| 20260510074506 | 8 | 350 | 4.8 | 12.9 | 0.00 | 0.89 | 0.00 | 96 | 1015.3 |
| 20260510073004 | 8 | 340 | 0.0 | 3.2 | 0.00 | 0.89 | 0.00 | 96 | 1014.5 |
| 20260510071503 | 8 | 329 | 0.0 | 1.6 | 0.00 | 0.89 | 0.00 | 96 | 1014.4 |
| 20260510070114 | 8 | 329 | 0.0 | 3.2 | 0.00 | 0.89 | 0.00 | 96 | 1014.5 |
| 20260510064558 | 8 | 342 | 0.0 | 4.8 | 0.00 | 0.89 | 0.00 | 96 | 1014.5 |
| 20260510063057 | 8 | 295 | 0.0 | 1.6 | 0.00 | 0.89 | 0.00 | 96 | 1014.7 |
| 20260510061556 | 9 | 337 | 0.0 | 1.6 | 0.00 | 0.89 | 0.00 | 96 | 1014.8 |
| 20260510060053 | 8 | 314 | 0.0 | 1.6 | 0.00 | 0.89 | 0.00 | 96 | 1014.7 |
| 20260510054653 | 8 | 155 | 0.0 | 3.2 | 0.00 | 0.89 | 0.00 | 96 | 1014.5 |
| 20260510053054 | 8 | 158 | 0.0 | 4.8 | 0.00 | 0.89 | 0.00 | 96 | 1014.3 |
| 20260510051603 | 9 | 165 | 0.0 | 3.2 | 0.00 | 0.89 | 0.00 | 96 | 1014.3 |
| 20260510050105 | 9 | 164 | 0.0 | 3.2 | 0.00 | 0.89 | 0.00 | 96 | 1014.4 |
| 20260510044548 | 9 | 167 | 0.0 | 1.6 | 0.00 | 0.89 | 0.00 | 96 | 1014.4 |
| 20260510043048 | 9 | 168 | 1.6 | 9.7 | 0.00 | 0.89 | 0.00 | 96 | 1014.4 |
| 20260510041544 | 9 | 196 | 1.6 | 4.8 | 0.00 | 0.89 | 0.00 | 95 | 1014.5 |
| 20260510040040 | 9 | 172 | 1.6 | 4.8 | 0.00 | 0.89 | 0.00 | 96 | 1014.4 |
| 20260510034539 | 9 | 160 | 0.0 | 1.6 | 0.00 | 0.89 | 0.89 | 96 | 1014.5 |
| 20260510033051 | 9 | 160 | 0.0 | 4.8 | 0.00 | 0.89 | 0.89 | 95 | 1014.3 |
| 20260510031544 | 9 | 165 | 3.2 | 8.0 | 0.00 | 0.89 | 0.89 | 95 | 1014.3 |
| 20260510030036 | 9 | 162 | 1.6 | 4.8 | 0.00 | 0.89 | 0.89 | 95 | 1014.1 |
| 20260510024537 | 9 | 133 | 0.0 | 3.2 | 0.00 | 0.89 | 0.89 | 95 | 1014.1 |
| 20260510023036 | 10 | 163 | 0.0 | 8.0 | 0.00 | 0.89 | 0.89 | 95 | 1014.2 |
| 20260510021611 | 10 | 188 | 4.8 | 16.1 | 0.00 | 0.89 | 0.89 | 95 | 1014.2 |
| 20260510020033 | 9 | 206 | 1.6 | 6.4 | 0.00 | 0.89 | 0.89 | 95 | 1014.2 |
| 20260510014546 | 9 | 167 | 0.0 | 0.0 | 0.00 | 0.89 | 0.89 | 94 | 1014.3 |
| 20260510013034 | 10 | 167 | 0.0 | 3.2 | 0.00 | 0.89 | 0.89 | 94 | 1014.2 |
| 20260510011532 | 10 | 164 | 1.6 | 6.4 | 0.00 | 0.89 | 0.89 | 94 | 1014.2 |
| 20260510010042 | 10 | 181 | 1.6 | 6.4 | 0.00 | 0.89 | 0.89 | 94 | 1014.1 |
| 20260510004531 | 10 | 165 | 1.6 | 8.0 | 0.00 | 0.89 | 0.89 | 94 | 1013.6 |
| 20260510003030 | 10 | 147 | 4.8 | 11.3 | 0.00 | 0.89 | 0.89 | 94 | 1013.4 |
| 20260510001533 | 10 | 172 | 3.2 | 9.7 | 0.00 | 0.89 | 0.89 | 94 | 1013.4 |
| 20260510000029 | 10 | 177 | 4.8 | 11.3 | 0.00 | 0.89 | 0.89 | 93 | 1013.4 |
| 20260509234529 | 11 | 178 | 3.2 | 12.9 | 0.00 | 0.89 | 0.89 | 93 | 1013.3 |
| 20260509233033 | 11 | 171 | 3.2 | 8.0 | 0.00 | 0.89 | 0.89 | 93 | 1013.2 |
| 20260509231528 | 11 | 168 | 3.2 | 9.7 | 0.00 | 0.89 | 0.89 | 92 | 1013.0 |
| 20260509230035 | 11 | 158 | 6.4 | 12.9 | 0.00 | 0.89 | 0.89 | 91 | 1013.1 |
| 20260509224525 | 12 | 159 | 3.2 | 8.0 | 0.00 | 0.89 | 0.89 | 90 | 1013.2 |
| 20260509223025 | 12 | 155 | 1.6 | 8.0 | 0.00 | 0.89 | 0.89 | 90 | 1013.1 |
| 20260509221523 | 12 | 188 | 0.0 | 4.8 | 0.00 | 0.89 | 0.89 | 89 | 1013.3 |
| 20260509220022 | 12 | 177 | 1.6 | 3.2 | 0.00 | 0.89 | 0.89 | 90 | 1013.4 |
| 20260509214520 | 11 | 257 | 0.0 | 3.2 | 0.03 | 0.89 | 0.89 | 90 | 1013.4 |
| 20260509213021 | 11 | 303 | 0.0 | 1.6 | 0.05 | 0.89 | 0.89 | 92 | 1013.4 |
| 20260509211520 | 11 | 158 | 0.0 | 0.0 | 0.05 | 0.89 | 0.89 | 93 | 1013.5 |
| 20260509210020 | 11 | 233 | 0.0 | 3.2 | 0.10 | 0.89 | 0.89 | 92 | 1013.6 |
| 20260509204519 | 11 | 18 | 0.0 | 4.8 | 0.13 | 0.86 | 0.86 | 92 | 1013.4 |
| 20260509203024 | 11 | 3 | 0.0 | 3.2 | 0.20 | 0.84 | 0.84 | 93 | 1013.6 |
| 20260509201518 | 11 | 237 | 0.0 | 3.2 | 0.25 | 0.84 | 0.84 | 92 | 1013.5 |
| 20260509200014 | 11 | 300 | 1.6 | 4.8 | 0.25 | 0.79 | 0.79 | 92 | 1014.0 |
| 20260509194516 | 11 | 41 | 1.6 | 9.7 | 0.28 | 0.71 | 0.71 | 92 | 1014.4 |
| 20260509193021 | 11 | 256 | 0.0 | 6.4 | 0.30 | 0.64 | 0.64 | 92 | 1014.4 |
| 20260509191513 | 11 | 340 | 1.6 | 8.0 | 0.30 | 0.56 | 0.56 | 92 | 1014.3 |
| 20260509190011 | 11 | 174 | 0.0 | 4.8 | 0.38 | 0.51 | 0.51 | 92 | 1014.4 |
| 20260509184510 | 11 | 15 | 0.0 | 8.0 | 0.38 | 0.43 | 0.43 | 91 | 1014.5 |
| 20260509183013 | 11 | 293 | 0.0 | 8.0 | 0.30 | 0.33 | 0.33 | 89 | 1014.5 |
| 20260509181508 | 11 | 139 | 0.0 | 4.8 | 0.23 | 0.25 | 0.25 | 90 | 1014.5 |
| 20260509180005 | 11 | 298 | 6.4 | 16.1 | 0.10 | 0.13 | 0.13 | 86 | 1015.2 |
| 20260509174505 | 12 | 290 | 3.2 | 11.3 | 0.03 | 0.05 | 0.05 | 84 | 1015.2 |
| 20260509173006 | 12 | 284 | 3.2 | 9.7 | 0.00 | 0.03 | 0.03 | 83 | 1015.0 |
| 20260509171506 | 13 | 297 | 3.2 | 16.1 | 0.00 | 0.03 | 0.03 | 80 | 1014.8 |
| 20260509170002 | 13 | 207 | 1.6 | 12.9 | 0.00 | 0.03 | 0.03 | 78 | 1014.8 |
| 20260509164501 | 13 | 212 | 3.2 | 11.3 | 0.00 | 0.03 | 0.03 | 75 | 1014.8 |
| 20260509163105 | 13 | 212 | 4.8 | 9.7 | 0.00 | 0.03 | 0.03 | 75 | 1014.7 |
| 20260509161605 | 13 | 212 | 1.6 | 11.3 | 0.00 | 0.03 | 0.03 | 76 | 1014.9 |
| 20260509160101 | 13 | 214 | 4.8 | 9.7 | 0.00 | 0.03 | 0.03 | 77 | 1014.9 |
| 20260509154555 | 13 | 205 | 1.6 | 11.3 | 0.03 | 0.03 | 0.03 | 80 | 1015.3 |
| 20260509153059 | 13 | 208 | 1.6 | 12.9 | 0.03 | 0.03 | 0.03 | 82 | 1015.2 |
| 20260509151550 | 12 | 169 | 0.0 | 3.2 | 0.03 | 0.03 | 0.03 | 85 | 1015.2 |
| 20260509150047 | 12 | 188 | 1.6 | 6.4 | 0.03 | 0.03 | 0.03 | 84 | 1015.4 |
| 20260509144550 | 12 | 189 | 1.6 | 4.8 | 0.00 | 0.00 | 0.00 | 84 | 1015.4 |
| 20260509143044 | 12 | 184 | 1.6 | 8.0 | 0.00 | 0.00 | 0.00 | 84 | 1015.3 |
| 20260509141544 | 11 | 206 | 3.2 | 9.7 | 0.00 | 0.00 | 0.00 | 84 | 1015.0 |
| 20260509140055 | 11 | 150 | 3.2 | 8.0 | 0.00 | 0.00 | 0.00 | 84 | 1014.9 |
| 20260509134539 | 11 | 163 | 0.0 | 8.0 | 0.00 | 0.00 | 0.00 | 84 | 1015.0 |
| 20260509133039 | 11 | 174 | 0.0 | 8.0 | 0.00 | 0.00 | 0.00 | 83 | 1015.1 |
| 20260509131537 | 11 | 184 | 0.0 | 6.4 | 0.00 | 0.00 | 0.00 | 82 | 1015.3 |
| 20260509130034 | 10 | 173 | 1.6 | 9.7 | 0.00 | 0.00 | 0.00 | 81 | 1015.3 |
| 20260509124533 | 10 | 184 | 3.2 | 11.3 | 0.00 | 0.00 | 0.00 | 80 | 1015.5 |
| 20260509123031 | 10 | 157 | 4.8 | 9.7 | 0.00 | 0.00 | 0.00 | 80 | 1015.3 |
| 20260509121530 | 10 | 160 | 3.2 | 6.4 | 0.00 | 0.00 | 0.00 | 81 | 1015.4 |